Tracking 31027 objects as of 19-Jul-2025
HD Live streaming from Space Station
objects crossing your sky now

BREEZE-M R/B

Track BREEZE-M R/B now!


NORAD ID: 38099
Int'l Code: 2012-011B
Perigee: 2,548.3 km
Apogee: 63,121.0 km
Inclination: 24.6 °
Period: 1,287.6 minutes
Semi major axis: 39205 km
RCS: 1.5849 m2 (large)
Launch date: March 25, 2012
Source: Commonwealth of Independent States (former USSR) (CIS)
Launch site: TYURATAM MISSILE AND SPACE COMPLEX (TTMTR)

Note: This is a ROCKET BODY
Your satellite tracking list
STARLINK-1578
Track 1 satellite(s)




NASA's NSSDC Master Catalog

Two Line Element Set (TLE):
1 38099U 12011B   25199.37382529 -.00000091  00000-0  00000-0 0  9990
2 38099  24.5846 195.2884 7725006 316.9681   3.5575  1.11835593 54244
Source of the keplerian elements: AFSPC